Weather History for Ionia, MI

Change the Weather History Date:

Tuesday, August 20, 2013

  Actual Average (KGRR) Record (KGRR)
Temperature  
Mean Temperature 73 °F 71 °F  
Max Temperature 87 °F 80 °F 97 °F (1947)
Min Temperature 59 °F 61 °F 43 °F (1992)
Degree Days  
Heating Degree Days 0 0  
Month to date heating degree days 0  
Since 1 June heating degree days 51  
Since 1 July heating degree days 6  
Cooling Degree Days 8 6  
Month to date cooling degree days 135  
Year to date cooling degree days 566  
Since 1 June cooling degree days 519  
Growing Degree Days 23 (Base 50)    
Moisture  
Dew Point 61 °F    
Average Humidity 69    
Maximum Humidity 94    
Minimum Humidity 38    
Precipitation  
Precipitation 0.00 in 0.10 in 2.34 in (2007)
Month to date precipitation 2.31  
Year to date precipitation 23.44  
Snow  
Snow 0.00 in 0.00 in 0.00 in ()
Month to date snowfall 0.0  
Since 1 June snowfall 0.0  
Since 1 July snowfall 0.0  
Snow Depth -    
Sea Level Pressure  
Sea Level Pressure 30.10 in    
Wind  
Wind Speed 5 mph (SW)    
Max Wind Speed 14 mph    
Max Gust Speed 20 mph    
Visibility 10 miles    
Events      
T = Trace of Precipitation, MM = Missing Value Source: NWS Daily Summary

Daily Weather History Graph

Daily Weather History Graph

Search for Another Location

Airport:

Trip Planner

Search our weather history database for the weather conditions in past years. The results will help you decide how hot, cold, wet, or windy it might be!

Date:

Astronomy

Aug. 20, 2013 Rise Set
Actual Time 6:51 AM EDT 8:34 PM EDT
Civil Twilight 6:21 AM EDT 9:04 PM EDT
Nautical Twilight 5:45 AM EDT 9:40 PM EDT
Astronomical Twilight 5:05 AM EDT 10:19 PM EDT
Moon 8:03 PM EDT (8/20) 6:21 AM EDT (8/20)
Length of Visible Light 14h 42m
Length of Day
13h 42m
Full, 100% of the Moon is Illuminated
Aug 20
Full
Aug 20
Full
Aug 28
Last Quarter
Sep 5
New
Sep 12
First Quarter

Hourly Weather History & Observations

Time (EDT) Temp. Heat Index Dew Point Humidity Pressure Visibility Wind Dir Wind Speed Gust Speed Precip Events Conditions
12:14 AM 61.7 °F - 57.2 °F 85% 30.07 in 10.0 mi SSW 3.5 mph - N/A   Clear
12:34 AM 60.1 °F - 57.2 °F 90% 30.07 in 10.0 mi Calm Calm - N/A   Clear
12:54 AM 62.1 °F - 57.7 °F 86% 30.07 in 10.0 mi SSW 3.5 mph - N/A   Clear
1:14 AM 62.1 °F - 57.4 °F 85% 30.07 in 10.0 mi SSW 3.5 mph - N/A   Clear
1:34 AM 64.8 °F - 58.1 °F 79% 30.07 in 10.0 mi SSW 3.5 mph - N/A   Clear
1:54 AM 59.9 °F - 57.7 °F 93% 30.07 in 10.0 mi Calm Calm - N/A   Clear
2:14 AM 61.2 °F - 57.4 °F 87% 30.07 in 10.0 mi Calm Calm - N/A   Clear
2:34 AM 61.0 °F - 57.0 °F 87% 30.07 in 10.0 mi SSW 3.5 mph - N/A   Clear
2:54 AM 62.8 °F - 57.7 °F 84% 30.07 in 10.0 mi SW 4.6 mph - N/A   Clear
3:14 AM 61.5 °F - 57.2 °F 86% 30.07 in 10.0 mi SW 4.6 mph - N/A   Clear
3:34 AM 61.3 °F - 57.7 °F 88% 30.07 in 10.0 mi SSW 4.6 mph - N/A   Scattered Clouds
3:54 AM 63.9 °F - 57.6 °F 80% 30.07 in 10.0 mi SSW 5.8 mph - N/A   Clear
4:14 AM 63.5 °F - 57.6 °F 81% 30.07 in 10.0 mi SW 5.8 mph - N/A   Clear
4:34 AM 63.5 °F - 57.9 °F 82% 30.07 in 10.0 mi SSW 5.8 mph - N/A   Clear
4:54 AM 59.7 °F - 57.2 °F 91% 30.08 in 10.0 mi Calm Calm - N/A   Clear
5:14 AM 62.6 °F - 57.7 °F 84% 30.08 in 10.0 mi SW 4.6 mph - N/A   Clear
5:34 AM 61.2 °F - 57.9 °F 89% 30.08 in 10.0 mi SW 3.5 mph - N/A   Clear
5:54 AM 61.7 °F - 58.3 °F 89% 30.08 in 10.0 mi SW 3.5 mph - N/A   Clear
6:14 AM 62.8 °F - 58.1 °F 85% 30.09 in 10.0 mi SW 4.6 mph - N/A   Clear
6:34 AM 62.8 °F - 58.3 °F 85% 30.09 in 10.0 mi SSW 5.8 mph - N/A   Clear
6:54 AM 59.4 °F - 57.4 °F 93% 30.10 in 7.0 mi SSW 3.5 mph - N/A   Scattered Clouds
7:14 AM 59.2 °F - 56.8 °F 92% 30.11 in 7.0 mi SSW 3.5 mph - N/A   Scattered Clouds
7:34 AM 63.1 °F - 59.4 °F 87% 30.11 in 10.0 mi SSW 4.6 mph - N/A   Clear
7:54 AM 64.0 °F - 60.1 °F 87% 30.12 in 10.0 mi Calm Calm - N/A   Clear
8:14 AM 65.3 °F - 60.8 °F 85% 30.12 in 10.0 mi SW 4.6 mph - N/A   Clear
8:34 AM 67.1 °F - 61.2 °F 81% 30.13 in 10.0 mi SW 3.5 mph - N/A   Clear
8:54 AM 69.1 °F - 61.9 °F 78% 30.13 in 10.0 mi SW 4.6 mph - N/A   Clear
9:14 AM 71.2 °F - 63.0 °F 75% 30.13 in 10.0 mi WSW 3.5 mph - N/A   Clear
9:34 AM 72.7 °F - 63.5 °F 73% 30.13 in 10.0 mi WSW 4.6 mph - N/A   Clear
9:54 AM 74.7 °F - 64.4 °F 70% 30.14 in 10.0 mi West 5.8 mph - N/A   Clear
10:14 AM 76.3 °F - 64.8 °F 67% 30.14 in 10.0 mi West 8.1 mph - N/A   Clear
10:34 AM 77.7 °F - 64.6 °F 64% 30.14 in 10.0 mi WSW 8.1 mph - N/A   Clear
10:54 AM 77.9 °F - 64.8 °F 64% 30.14 in 10.0 mi WSW 6.9 mph - N/A   Clear
11:14 AM 80.1 °F 81.8 °F 64.6 °F 59% 30.14 in 10.0 mi WSW 8.1 mph - N/A   Clear
11:34 AM 80.2 °F 81.9 °F 64.4 °F 58% 30.14 in 10.0 mi WSW 9.2 mph - N/A   Clear
11:54 AM 82.4 °F 83.9 °F 64.4 °F 54% 30.14 in 10.0 mi WSW 6.9 mph - N/A   Clear
12:14 PM 82.8 °F 84.0 °F 63.3 °F 52% 30.14 in 10.0 mi WSW 11.5 mph 17.3 mph N/A   Mostly Cloudy
12:34 PM 84.0 °F 84.9 °F 63.1 °F 49% 30.13 in 10.0 mi WSW 11.5 mph - N/A   Scattered Clouds
12:54 PM 83.1 °F 84.0 °F 62.6 °F 50% 30.13 in 10.0 mi WSW 10.4 mph - N/A   Scattered Clouds
1:14 PM 83.5 °F 84.5 °F 63.0 °F 50% 30.12 in 10.0 mi WSW 12.7 mph 16.1 mph N/A   Mostly Cloudy
1:34 PM 84.9 °F 85.4 °F 62.1 °F 46% 30.12 in 10.0 mi WSW 11.5 mph 19.6 mph N/A   Scattered Clouds
1:54 PM 85.1 °F 85.7 °F 62.2 °F 46% 30.12 in 10.0 mi WSW 11.5 mph - N/A   Scattered Clouds
2:14 PM 85.6 °F 86.3 °F 62.6 °F 46% 30.11 in 10.0 mi West 10.4 mph - N/A   Scattered Clouds
2:34 PM 84.7 °F 85.2 °F 62.1 °F 46% 30.11 in 10.0 mi West 10.4 mph - N/A   Scattered Clouds
2:54 PM 85.5 °F 85.7 °F 61.5 °F 44% 30.10 in 10.0 mi SW 11.5 mph 19.6 mph N/A   Scattered Clouds
3:14 PM 85.1 °F 85.4 °F 61.7 °F 45% 30.10 in 10.0 mi West 12.7 mph 19.6 mph N/A   Scattered Clouds
3:34 PM 86.2 °F 86.3 °F 61.5 °F 43% 30.10 in 10.0 mi WSW 13.8 mph - N/A   Scattered Clouds
3:54 PM 87.3 °F 86.5 °F 59.0 °F 38% 30.09 in 10.0 mi West 9.2 mph 18.4 mph N/A   Scattered Clouds
4:14 PM 86.9 °F 87.0 °F 61.5 °F 42% 30.09 in 10.0 mi West 11.5 mph 17.3 mph N/A   Clear
4:34 PM 85.1 °F 85.9 °F 62.6 °F 47% 30.09 in 10.0 mi WSW 9.2 mph - N/A   Scattered Clouds
4:54 PM 86.9 °F 86.7 °F 60.3 °F 41% 30.08 in 10.0 mi WSW 11.5 mph 16.1 mph N/A   Scattered Clouds
5:14 PM 86.0 °F 86.1 °F 61.0 °F 43% 30.08 in 10.0 mi SW 11.5 mph - N/A   Scattered Clouds
5:34 PM 85.6 °F 85.9 °F 61.3 °F 44% 30.08 in 10.0 mi WSW 9.2 mph - N/A   Clear
5:54 PM 85.8 °F 85.9 °F 61.2 °F 43% 30.08 in 10.0 mi WSW 11.5 mph - N/A   Scattered Clouds
6:14 PM 85.1 °F 85.0 °F 60.3 °F 43% 30.08 in 10.0 mi WSW 11.5 mph - N/A   Scattered Clouds
6:34 PM 84.9 °F 85.2 °F 61.2 °F 45% 30.08 in 10.0 mi West 11.5 mph - N/A   Clear
6:54 PM 83.8 °F 84.3 °F 61.9 °F 47% 30.08 in 10.0 mi WSW 9.2 mph - N/A   Clear
7:14 PM 82.8 °F 83.6 °F 62.6 °F 50% 30.08 in 10.0 mi West 9.2 mph - N/A   Clear
7:34 PM 81.7 °F 82.3 °F 61.0 °F 49% 30.08 in 10.0 mi WSW 8.1 mph - N/A   Clear
7:54 PM 80.2 °F 81.3 °F 61.9 °F 53% 30.08 in 10.0 mi WSW 4.6 mph - N/A   Clear
8:14 PM 78.8 °F - 62.4 °F 57% 30.08 in 10.0 mi West 3.5 mph - N/A   Clear
8:34 PM 77.4 °F - 62.4 °F 60% 30.08 in 10.0 mi WSW 4.6 mph - N/A   Clear
8:54 PM 77.0 °F - 62.8 °F 61% 30.08 in 10.0 mi SW 3.5 mph - N/A   Clear
9:14 PM 71.2 °F - 62.8 °F 75% 30.09 in 10.0 mi SW 3.5 mph - N/A   Clear
9:34 PM 70.0 °F - 62.8 °F 78% 30.09 in 10.0 mi Calm Calm - N/A   Clear
9:54 PM 69.6 °F - 63.1 °F 80% 30.09 in 10.0 mi South 3.5 mph - N/A   Clear
10:14 PM 69.4 °F - 63.1 °F 80% 30.10 in 10.0 mi Calm Calm - N/A   Clear
10:34 PM 68.9 °F - 63.0 °F 81% 30.09 in 10.0 mi Calm Calm - N/A   Clear
10:54 PM 68.2 °F - 63.3 °F 84% 30.09 in 10.0 mi Calm Calm - N/A   Clear
11:14 PM 67.5 °F - 63.9 °F 88% 30.09 in 10.0 mi Calm Calm - N/A   Clear
11:34 PM 65.1 °F - 62.6 °F 92% 30.10 in 7.0 mi South 4.6 mph - N/A   Clear
11:54 PM 64.8 °F - 63.1 °F 94% 30.10 in 7.0 mi South 3.5 mph - N/A   Clear